Regional Weather Roundup
Issued by NWS

Home | Current Version | Previous Version | Graphics & Text | Print | Product List | Glossary Off
Versions: 1 2 3 4 5 6 7 8 9 10 11 12 13 14 15 16 17 18 19 20 21 22 23 24 25 26 27 28 29 30 31 32 33 34 35 36 37 38 39 40 41 42 43 44 45 46 47 48 49 50

000
ASUS43 KMKX 291920
RWRWI

WISCONSIN REGIONAL WEATHER ROUNDUP
NATIONAL WEATHER SERVICE MILWAUKEE/SULLIVAN WI
200 PM CDT SUN MAR 29 2015

NOTE: "FAIR" INDICATES FEW OR NO CLOUDS BELOW 12,000 FEET WITH NO
SIGNIFICANT WEATHER AND/OR OBSTRUCTIONS TO VISIBILITY.

WIZ001-002-006>008-014>016-023>028-292000-
NORTHWEST WISCONSIN

CITY           SKY/WX    TMP DP  RH WIND       PRES   REMARKS
SUPERIOR ARPT  CLOUDY    42  37  82 NW23G29   29.58R
ASHLAND        LGT SNOW  34  33  96 W12       29.53R FOG     WCI  25
HAYWARD        FLURRIES  34  32  92 W8        29.56R WCI  27
SIREN          CLOUDY    40  37  92 NW13G20   29.62R WCI  32
CUMBERLAND     CLOUDY    34  32  93 NW13G18   29.60R WCI  25
RICE LAKE      LGT SNOW  34  32  91 W14G20    29.61R WCI  25
CHETEK         RAIN      36  34  93 W14G28    29.60R WCI  27
LADYSMITH      CLOUDY    35  34  97 W7        29.55S FOG     WCI  29
EAU CLAIRE     LGT RAIN  43  39  86 NW23G32   29.59R
MENOMONIE      LGT RAIN  41  38  87 NW21G40   29.62R
NEW RICHMOND   CLOUDY    40  39  99 W15G23    29.66R WCI  31
OSCEOLA        CLOUDY    42  41  99 W13G18    29.69R
$$

WIZ003>005-009-010-017-018-292000-
NORTH CENTRAL WISCONSIN

CITY           SKY/WX    TMP DP  RH WIND       PRES   REMARKS
MANITOWISH WTR SNOW      32  32 100 SW6       29.47F VSB 1/4 WCI  26
ARBOR VITAE    SNOW      34  32  93 SW5       29.47F VSB 1/2 WCI  30
WOODRUFF       SNOW      34  32  93 SW5       29.47F VSB 1/2 WCI  30
RHINELANDER    LGT SNOW  33  30  88 SW10G22   29.49F FOG     WCI  25
EAGLE RIVER    LGT SNOW  32  29  89 SW9       29.47F WCI  24
LAND O LAKES   SNOW      33  32  95 SW6       29.47F VSB 1/2 WCI  28
PHILLIPS       CLOUDY    32  32  99 SW6       29.50S WCI  27
TOMAHAWK       LGT SNOW  32  31  96 CALM      29.51F VSB 1
MEDFORD        RAIN      33  32  97 SW8       29.52F VSB 1   WCI  26
MERRILL        MIX PCPN  33  33 100 SW8       29.53F WCI  26
$$

WIZ029-030-035-036-043>047-292000-
CENTRAL WISCONSIN

CITY           SKY/WX    TMP DP  RH WIND       PRES   REMARKS
WAUSAU         LGT SNOW  34  33  96 SW13      29.52F FOG     WCI  25
MOSINEE        CLOUDY    34  34 100 SW13G20   29.56F FOG     WCI  25
MARSHFIELD     LGT RAIN  38  35  89 SW17G25   29.55F FOG     WCI  28
STEVENS POINT  CLOUDY    33  32  96 SW17G25   29.57F WCI  22
WAUPACA        CLOUDY    37  33  85 SW15G23   29.61F WCI  28
WAUTOMA        CLOUDY    36  34  92 SW16G24   29.64F WCI  26
WISC RAPIDS    CLOUDY    37  32  82 SW15G23   29.60F WCI  28
CAMP DOUGLAS   LGT RAIN  41  41 100 S13G22    29.60F
$$

WIZ011>013-019>022-031-037>040-048>050-292000-
NORTHEAST WISCONSIN

CITY           SKY/WX    TMP DP  RH WIND       PRES   REMARKS
ANTIGO         LGT SNOW  32  31  98 SW10      29.52F WCI  23
SHAWANO        DRIZZLE   35  32  90 S9        29.58F WCI  27
OCONTO         CLOUDY    33  32  99 SW9G22    29.60F WCI  25
STURGEON BAY   CLOUDY    34  28  80 SW17      29.62F WCI  23
GREEN BAY      NOT AVBL
MANITOWOC      CLOUDY    33  32  96 SW16G28   29.66F WCI  23
APPLETON       CLOUDY    34  30  86 SW16G23   29.63F WCI  23
CLINTONVILLE   CLOUDY    32  32 100 SW13      29.59F WCI  22
OSHKOSH        CLOUDY    35  30  82 SW23G35   29.63F WCI  23
$$

WIZ032>034-041-042-053>061-292000-
SOUTHWEST WISCONSIN

CITY           SKY/WX    TMP DP  RH WIND       PRES   REMARKS
LA CROSSE      CLOUDY    47  37  68 W30G43    29.63R
SPARTA         DRIZZLE   42  36  79 SW6       29.62F
VIROQUA        CLOUDY    40  39  95 S17       29.62F WCI  32
BOSCOBEL       MOSUNNY   48  38  68 SW17G24   29.69F
PRAIRIE DU CHI PTSUNNY   46  38  72 S7        29.70F
PLATTEVILLE    CLOUDY    41  39  90 S20G29    29.74F
$$

WIZ056-057-062-063-064-067-068-292000-
SOUTH CENTRAL WISCONSIN

CITY           SKY/WX    TMP DP  RH WIND       PRES   REMARKS
REEDSBURG      CLOUDY    36  34  90 SW15      29.67F WCI  27
BARABOO/DELLS  CLOUDY    36  33  87 SW20G26   29.67F WCI  25
LONE ROCK      CLOUDY    39  34  82 SW9       29.71F WCI  33
MINERAL POINT  CLOUDY    37  36  93 SW16G23   29.72F WCI  28
MADISON        CLOUDY    35  30  82 S14G25    29.73F WCI  26
MIDDLETON      CLOUDY    37  33  87 SW15G24   29.72F WCI  27
WATERTOWN      CLOUDY    33  32  95 SW13G22   29.73F WCI  24
MONROE         CLOUDY    34  32  93 S23G32    29.75F WCI  22
JANESVILLE     CLOUDY    36  32  87 S14G20    29.78F WCI  27
$$

WIZ051-052-058>065-066-070>072-292000-
SOUTHEAST WISCONSIN

CITY           SKY/WX    TMP DP  RH WIND       PRES   REMARKS
MILWAUKEE      CLOUDY    35  30  82 SW24G32   29.76F WCI  23
WAUKESHA       CLOUDY    32  28  86 S16G26    29.76F WCI  21
MILWAUKEE/TIMM CLOUDY    34  30  86 SW18G33   29.77F WCI  23
RACINE         CLOUDY    35  29  78 SW24G31   29.81F WCI  23
BURLINGTON     CLOUDY    33  29  86 SW15      29.79F WCI  23
KENOSHA        CLOUDY    34  30  85 SW23G32   29.81F WCI  22
FOND DU LAC    CLOUDY    35  30  82 SW26G39   29.66F WCI  22
SHEBOYGAN      CLOUDY    34  31  88 SW25G32   29.69F WCI  21
WEST BEND      CLOUDY    32  30  93 S16G24    29.71F WCI  21
JUNEAU         CLOUDY    33  30  90 S16       29.72F WCI  22
$$

LSZ147-162-292000-
LAKE SUPERIOR

STATION/POSITION TIME  TEMP    WIND        PRES    WAVE
                       AIR SEA DIR/SP/G            HT/PER
                 (UTC) (F)     (DEG/KT/KT) (MB)    (FT/S)
DEVILS ISLAND    1900   34     250/ 23/ 25  998.8R
PORT WING        1840   37     250/ 13/ 19 1000.3R
SAXON HARBOR     1800   34     200/  8/ 13  998.6S
$$

LMZ867-665-643>646-292000-
LAKE MICHIGAN

STATION/POSITION TIME  TEMP    WIND        PRES    WAVE
                       AIR SEA DIR/SP/G            HT/PER
                 (UTC) (F)     (DEG/KT/KT) (MB)    (FT/S)
SISTER BAY       1732   32     180/ 14/ 17   N/A
KEWAUNEE LAKESHO 1900          200/ 15/ 21   N/A
SHEBOYGAN LAKESH 1900   35     200/ 23/ 27 1006.3F
PORT WASHINGTON  1822   35     210/ 11/ 21 1008.8F
MILWAUKEE LAKESH 1900   35     210/ 24/ 35   N/A
KENOSHA   LAKESH 1900   35     210/ 18/ 27 1009.8F
$$

TC  - TEMPERATURE IN CELSIUS
VSB - VISIBILITY IN STATUTE MILES
WCI - WIND CHILL INDEX
HX  - HEAT INDEX



USA.gov is the U.S. government's official web portal to all federal, state and local government web resources and services.